Location: Barcelona
(41.3830°N, 2.1830°E)
Time: 01:28:04
(UTC+02:00)

ISS - Pass Details

Date: 12 July 2019
Orbit: 409 x 418 km, 51.6° (Epoch: 23 July)

Event Time Altitude Azimuth Distance (km) Brightness Sun altitude
Rises 04:46:09 0° 304° (NW) 2,345 0.0 -15.5°
Reaches altitude 10° 04:48:58 10° 330° (NNW) 1,480 -0.7 -15.1°
Maximum altitude 04:50:54 15° 6° (N) 1,236 -0.6 -14.9°
Drops below altitude 10° 04:52:50 10° 42° (NE) 1,478 0.5 -14.6°
Sets 04:55:38 0° 68° (ENE) 2,337 1.3 -14.3°
